Hourly Data Report for October 03, 2017

All times are specified in Local Standard Time (LST). Add 1 hour to adjust for Daylight Saving Time where and when it is observed.

BATHURST A
NEW BRUNSWICK

47°37'47.000" N
65°44'20.000" W
58.80 m
8100505
71574
ZBF

Download Data

Hourly Data (October 2017)
Hourly Data Report for October 3, 2017
Temp Definition
°C
Dew Point Temp Definition
°C
Rel Hum Definition
%
Wind Dir Definition
10's deg

Wind Spd Definition
km/h
Visibility Definition
km
Stn Press Definition
kPa
Hmdx Definition


Wind Chill Definition


Weather Definition


TIME
00:00 Legend Double Dagger 0.9 -1.2 86 25 9 24.1 102.81     LegendNANA
01:00 Legend Double Dagger -0.2 -1.2 93 24 5 24.1 102.84   -2 LegendNANA
02:00 Legend Double Dagger -0.9 -1.6 95 24 5 24.1 102.89   -3 Clear
03:00 Legend Double Dagger -1.5 -2.3 94 24 6 24.1 102.87   -4 LegendNANA
04:00 Legend Double Dagger -1.5 -2.2 95 21 3 24.1 102.91   -3 LegendNANA
05:00 Legend Double Dagger -2.1 -2.8 95 36 3 24.1 102.94   -3 Clear
06:00 Legend Double Dagger -2.0 -2.5 96 16 4 24.1 102.92   -3 LegendNANA
07:00 Legend Double Dagger -1.9 -2.6 95 36 1 24.1 102.97   -2 LegendNANA
08:00 Legend Double Dagger 1.0 -1.2 85 36 2 24.1 102.99     Mostly Cloudy
09:00 Legend Double Dagger 5.3 0.4 71 21 6 24.1 102.97     LegendNANA
10:00 Legend Double Dagger 8.1 1.5 63 18 5 24.1 102.91     LegendNANA
11:00 Legend Double Dagger 9.8 -0.5 49 26 8 24.1 102.95     Cloudy
12:00 Legend Double Dagger 9.9 -0.5 48 16 6 24.1 102.79     LegendNANA
13:00 Legend Double Dagger 10.4 3.2 61 2 7 24.1 102.74     LegendNANA
14:00 Legend Double Dagger 12.4 1.0 45 20 12 24.1 102.53     Cloudy
15:00 Legend Double Dagger 13.2 2.0 46 17 14 24.1 102.39     LegendNANA
16:00 Legend Double Dagger 14.8 1.2 39 23 14 24.1 102.31     LegendNANA
17:00 Legend Double Dagger 13.9 0.9 41 24 8 24.1 102.29     Cloudy
18:00 Legend Double Dagger 10.0 3.8 65 1 6 24.1 102.23     LegendNANA
19:00 Legend Double Dagger 9.1 5.2 77 32 3 24.1 102.14     LegendNANA
20:00 Legend Double Dagger 7.4 5.2 86 36 1 24.1 102.13     Mostly Cloudy
21:00 Legend Double Dagger 4.6 3.8 94 24 5 24.1 101.99     LegendNANA
22:00 Legend Double Dagger 4.2 3.5 95 23 7 24.1 101.89     LegendNANA
23:00 Legend Double Dagger 4.5 2.8 89 22 7 24.1 101.80     Mainly Clear

Notes on Data Quality.

Legend

  • E = Estimated
  • M = Missing
  • NA = Not Available
  • ‡ = Partner data that is not subject to review by the National Climate Archives
Date modified: